GEFSMA_500_meanwind_096.txt.gz
Wind_Speed
25 24 24 24 24 23 22 22 21 21 20 20 19 19 18 18 17 16 16 16 16 15 15 14 14 14 14 14 14 13 13 14 14 14 14 14 14 15 15 16 16 17 17
27 27 27 26 25 24 23 23 22 22 22 21 20 20 20 20 20 19 18 18 18 17 17 17 16 16 16 16 15 15 15 16 16 17 17 16 17 17 18 18 19 19 20
29 29 29 28 27 26 25 24 24 24 24 24 23 22 22 21 21 21 20 20 20 19 19 19 18 18 18 18 18 18 18 18 18 19 19 19 19 20 20 21 22 22 23
30 30 30 30 30 29 27 26 26 25 26 25 25 25 24 23 23 23 22 22 21 21 20 20 20 20 20 20 20 20 20 21 21 21 22 22 22 23 24 25 25 26 26
31 31 31 32 32 32 30 28 27 27 27 27 27 27 26 26 25 25 24 24 23 23 23 22 23 23 22 22 22 22 23 23 23 23 24 24 25 25 26 27 28 29 29
32 31 31 34 33 32 32 31 30 29 29 30 30 29 28 27 27 27 26 26 25 25 25 25 25 25 24 24 24 24 24 25 25 26 26 27 27 28 28 29 30 31 32
33 32 32 34 34 32 33 32 32 32 31 30 31 31 29 29 29 29 28 28 28 27 27 27 27 27 26 26 26 26 26 26 27 28 28 29 30 31 31 32 33 34 35
32 32 32 33 34 33 33 33 33 33 33 33 32 32 32 31 31 31 31 30 30 29 28 29 29 29 28 28 28 28 28 29 30 30 31 32 32 33 34 34 34 36 37
32 33 32 33 35 35 34 34 34 33 34 34 33 33 33 34 33 33 33 32 32 31 31 31 30 30 30 30 30 30 31 31 32 33 34 34 34 35 35 36 37 37 38
31 32 32 33 34 35 35 35 34 35 34 34 34 33 33 34 34 35 34 33 34 33 33 33 33 32 32 32 32 33 33 34 34 35 35 35 36 36 37 38 39 39 40
31 32 32 33 34 35 35 34 34 34 33 33 34 33 33 34 35 34 34 34 34 34 34 34 34 34 34 35 34 35 35 36 36 36 36 37 37 38 39 40 40 41 42
31 32 32 32 33 33 33 32 33 33 33 32 33 34 34 34 33 34 34 34 35 35 35 35 35 35 35 36 36 36 36 36 37 37 37 38 39 39 39 40 40 41 42
31 31 32 32 33 32 32 31 32 33 33 32 32 33 34 33 33 34 34 34 34 35 36 36 36 36 36 36 36 37 37 37 37 37 38 39 40 39 40 40 41 42 43
28 29 31 31 32 32 31 30 30 31 31 32 32 33 34 34 35 34 34 35 36 36 36 36 36 36 36 36 36 36 36 37 37 38 39 39 39 39 40 40 41 42 43
27 28 29 30 31 31 32 31 30 30 31 31 31 33 33 34 35 34 34 35 35 36 37 35 35 35 35 35 35 36 36 36 37 38 38 38 38 39 39 40 41 42 42
25 26 27 28 29 30 31 30 29 28 29 29 30 31 32 33 33 33 34 35 36 36 35 34 33 34 34 34 34 35 35 36 36 37 37 36 36 38 39 40 40 41 41
25 25 26 26 27 28 28 28 28 28 28 28 28 28 29 30 30 31 32 33 33 33 33 33 34 34 34 34 34 34 34 34 34 34 34 35 36 37 38 38 39 40 40
24 25 25 25 26 27 27 27 27 27 28 27 27 27 27 28 29 30 30 31 31 31 31 31 32 33 32 33 33 32 32 32 33 34 34 35 36 36 37 37 38 38 39
23 23 24 24 25 25 25 25 25 26 27 26 26 26 26 27 26 27 28 28 28 28 29 30 29 29 30 31 30 31 31 31 32 33 33 34 34 35 35 36 36 36 35
23 23 23 23 23 24 23 24 24 24 24 24 24 24 24 25 25 25 26 26 26 26 27 27 27 28 28 29 28 29 29 30 31 31 32 32 33 33 34 34 33 32 31
23 23 23 23 23 22 22 22 23 23 23 23 23 23 23 24 25 25 25 25 25 25 25 25 26 26 26 26 27 28 28 29 29 29 30 31 31 31 31 30 30 29 28
23 23 23 23 23 23 23 22 22 22 22 22 23 23 23 23 22 23 23 24 24 23 23 23 24 24 24 24 25 26 27 27 28 29 29 29 29 28 28 28 27 26 26
22 22 23 23 22 22 22 22 22 21 21 21 21 21 20 21 21 20 21 21 21 22 22 21 22 23 23 24 25 25 26 26 27 28 27 27 27 26 26 25 25 24 23
20 21 20 19 19 19 19 18 18 18 18 18 18 18 18 18 18 18 19 20 20 20 20 21 22 22 23 23 24 24 25 25 26 26 25 25 24 24 24 23 22 21 20
17 17 16 15 16 15 15 15 15 15 14 15 16 16 17 17 17 18 18 18 19 19 20 21 21 21 22 22 22 23 23 23 23 23 22 22 21 21 21 20 19 18 17
15 15 15 14 13 12 13 13 13 13 13 14 14 15 15 16 17 17 17 18 18 19 20 21 21 21 21 21 21 21 21 21 21 21 20 20 20 19 18 17 16 15 14

GEFSMA_500_meanwind_102.txt.gz
Wind_Speed
24 23 24 23 23 24 24 24 24 23 23 22 22 21 21 20 19 18 18 17 17 17 17 16 16 15 15 15 15 14 13 14 13 12 13 13 13 14 14 15 16 16 17
25 25 25 26 26 25 25 25 26 25 25 24 23 23 22 22 21 20 19 19 18 19 19 19 18 17 17 17 17 17 16 15 15 15 15 15 16 16 16 17 18 19 19
27 27 27 27 27 27 27 27 26 26 26 25 25 24 24 23 23 22 21 21 19 20 20 20 20 20 20 19 19 18 18 17 17 17 17 18 18 18 19 19 21 21 22
28 29 29 29 29 29 29 29 28 27 27 27 26 26 25 25 24 24 23 22 22 22 22 22 22 22 22 21 21 21 20 20 20 20 20 20 20 21 21 22 23 23 24
30 30 31 31 31 31 31 31 29 29 29 29 28 27 27 28 27 26 25 25 25 25 24 23 23 24 23 23 23 22 22 22 23 23 23 23 23 23 24 24 25 25 26
31 32 33 32 32 31 31 30 30 31 31 30 30 29 29 29 29 28 27 27 27 26 26 26 25 25 26 26 25 25 25 24 25 26 26 26 26 26 26 26 27 28 29
33 33 33 32 32 31 31 31 30 30 31 31 31 30 30 30 30 29 28 28 28 28 28 27 27 27 27 27 27 27 27 27 27 27 27 27 28 28 28 28 29 30 31
32 32 33 32 32 32 31 31 30 31 32 32 32 32 31 31 31 30 30 29 30 30 30 29 29 29 29 28 28 28 28 29 29 29 29 30 30 31 31 31 31 32 33
34 33 33 33 33 32 31 31 31 31 31 32 32 32 32 32 32 31 32 31 31 32 32 32 31 30 29 29 30 30 30 30 31 32 32 32 33 33 33 33 34 34 35
33 34 34 34 32 32 31 32 32 32 32 33 33 33 33 33 33 33 33 33 33 33 33 33 33 32 31 31 32 32 32 33 33 34 34 35 35 35 35 35 35 36 37
33 34 34 34 34 32 32 32 32 32 33 33 33 33 33 33 33 33 33 33 34 34 34 34 34 34 34 34 34 34 35 35 36 36 37 37 36 36 37 37 37 38 38
33 34 34 34 33 33 33 33 33 33 33 32 33 35 35 35 33 33 32 32 33 34 34 33 34 35 34 35 36 36 37 38 37 37 37 37 37 37 38 38 39 38 38
32 32 32 32 32 32 33 33 33 33 33 33 32 34 35 35 33 33 33 33 33 33 34 34 34 35 35 35 36 37 37 37 37 37 38 38 38 38 38 38 38 38 39
29 30 30 30 31 31 31 32 33 33 33 33 33 32 33 33 32 31 32 32 33 34 34 33 34 35 35 35 36 37 37 36 36 37 38 38 39 39 38 37 38 39 39
26 26 27 28 29 29 29 29 30 30 31 32 32 32 32 32 32 31 31 32 32 32 32 33 34 34 33 34 34 33 34 35 35 36 37 38 38 37 36 37 37 37 37
26 26 26 26 26 27 27 27 28 29 29 30 30 31 31 31 31 30 30 31 32 33 34 33 33 33 33 33 33 33 34 35 35 36 37 36 35 35 35 35 35 35 36
23 23 24 24 25 25 25 26 27 28 29 29 28 29 30 30 30 30 30 30 31 31 31 31 32 31 31 31 32 33 34 34 34 34 33 34 33 33 33 32 32 33 34
22 22 23 23 24 24 24 25 26 26 26 27 27 28 28 29 28 29 29 28 29 29 29 30 30 29 29 30 31 31 30 30 30 31 31 30 29 29 29 30 30 31 33
22 22 22 22 23 23 23 23 24 24 24 24 24 24 25 26 27 27 26 26 25 25 26 27 27 26 26 27 27 26 26 27 27 27 26 26 26 27 28 29 30 31 32
23 22 23 23 22 22 22 22 22 23 22 22 22 22 22 23 24 24 24 24 24 24 24 24 24 25 25 25 25 25 25 25 24 24 24 24 25 26 27 28 29 30 30
24 24 23 23 22 21 21 20 20 21 21 21 21 20 20 21 22 21 22 22 23 23 23 24 23 23 23 23 23 23 22 22 22 22 23 24 25 26 27 27 28 28 28
23 23 23 22 21 21 20 19 19 19 19 19 19 20 19 19 20 20 20 19 19 20 20 20 20 20 21 21 21 20 20 20 21 21 22 23 24 25 26 26 27 27 26
23 22 22 21 20 20 20 19 18 18 18 18 18 19 19 19 19 19 18 19 18 19 19 18 18 19 19 19 19 19 19 20 20 21 22 23 23 24 24 25 25 24 24
21 20 20 18 18 18 18 18 17 17 17 17 18 19 18 17 17 17 17 17 18 18 17 18 18 18 17 17 17 17 18 19 20 21 21 21 22 22 22 22 22 21 21
17 17 17 16 16 15 16 15 15 14 14 14 14 14 14 14 15 15 16 16 16 16 16 16 16 16 16 17 17 18 18 18 19 20 20 21 21 21 20 20 19 19 18
14 14 13 13 13 13 12 11 11 12 12 11 10 10 10 10 11 12 13 14 14 14 14 14 15 15 15 16 16 17 17 17 18 18 19 19 19 18 18 17 17 16 15

GEFSMA_500_meanwind_108.txt.gz
Wind_Speed
20 20 20 20 20 20 20 19 19 19 20 20 21 21 20 19 19 19 19 19 17 17 16 16 16 16 15 14 14 14 14 13 13 13 13 13 13 14 14 14 14 14 15
21 20 20 21 21 21 21 21 21 21 21 21 22 22 22 21 21 21 20 19 19 19 18 18 18 17 17 16 16 16 16 16 16 16 15 15 15 16 16 16 16 16 17
21 22 22 22 22 22 22 23 22 22 22 22 23 22 22 23 23 22 22 21 21 20 20 20 20 20 19 19 18 18 18 18 18 18 18 18 18 18 18 18 18 18 19
22 23 23 23 23 24 24 23 24 24 23 24 24 24 23 23 24 23 23 23 22 21 21 21 21 21 21 21 21 20 20 20 20 20 20 21 20 20 21 21 21 21 22
23 23 24 24 24 25 25 25 25 25 25 24 25 25 25 25 25 24 25 24 24 24 24 24 23 23 23 23 23 23 23 23 23 23 23 23 23 23 23 23 24 24 24
24 25 25 25 26 26 26 26 26 26 26 26 26 26 26 26 26 26 26 26 25 25 25 25 24 24 25 25 25 25 24 25 25 25 25 25 25 24 25 26 26 26 27
26 26 26 27 27 27 28 28 27 27 27 27 26 27 27 27 28 27 27 27 27 26 26 25 25 25 26 26 25 25 25 26 26 26 26 26 26 26 26 27 27 28 29
27 28 27 28 28 28 28 28 28 28 27 27 27 26 27 27 28 29 28 27 27 26 26 26 26 26 27 27 26 26 27 27 27 28 27 27 28 29 29 29 30 30 31
28 28 28 28 28 29 29 29 29 28 28 27 28 27 27 27 28 28 28 27 28 28 28 28 27 27 28 27 27 27 27 28 28 29 29 29 30 30 31 31 32 32 33
29 29 29 29 29 29 29 30 30 29 29 29 29 28 28 27 27 27 28 28 28 28 28 28 28 29 28 28 28 28 28 29 29 29 30 31 32 33 33 33 33 34 34
28 28 29 29 29 28 29 29 30 30 30 30 29 29 28 28 27 28 28 28 28 28 28 28 29 30 31 31 30 29 29 30 30 31 32 33 33 34 34 34 35 35 35
27 27 28 28 29 29 29 29 30 30 30 29 29 30 29 29 29 29 29 30 29 29 29 29 30 30 31 32 32 31 31 31 32 33 34 34 34 35 35 34 35 36 36
25 26 27 27 28 28 28 28 29 29 29 29 29 30 30 30 30 29 30 30 30 30 30 29 29 30 30 30 31 31 31 31 32 33 34 34 34 35 35 35 36 37 38
24 25 25 26 26 27 27 28 27 27 28 28 28 29 30 30 30 30 30 30 30 30 30 29 28 28 29 29 31 31 31 32 33 34 35 34 35 35 35 36 37 38 39
23 23 24 24 25 25 25 26 25 25 26 26 26 27 28 29 30 31 30 30 30 30 29 29 29 29 29 30 31 31 32 33 33 33 33 34 35 35 35 35 36 36 37
22 22 22 23 22 22 23 23 23 23 24 25 26 27 27 28 28 29 29 29 29 29 29 29 29 29 29 31 31 31 31 31 31 32 33 33 33 34 33 33 34 34 34
22 22 22 22 22 21 21 21 22 23 23 24 24 25 26 27 27 27 28 28 28 28 28 28 28 28 28 29 29 29 28 28 29 30 30 30 30 29 30 30 31 31 31
22 22 21 22 22 22 21 21 21 22 22 23 23 24 24 26 26 26 27 27 26 26 26 27 26 26 25 25 26 26 26 26 27 27 27 27 27 28 28 29 29 29 29
22 22 22 22 22 22 22 21 22 22 22 22 22 22 23 24 24 25 25 25 24 24 25 25 24 24 24 24 25 26 26 26 26 26 25 26 26 27 28 28 28 28 29
23 23 22 22 23 22 22 22 22 22 22 22 22 23 23 23 23 23 22 22 23 23 23 23 22 22 22 23 23 23 23 23 23 24 25 25 26 26 27 27 27 27 28
24 24 23 23 22 22 22 22 21 21 20 20 20 20 21 21 20 20 20 20 21 21 20 20 20 20 21 21 22 21 21 21 22 23 24 24 24 24 24 25 26 26 27
23 23 23 23 22 22 21 21 20 20 19 18 18 17 17 17 18 19 19 19 19 19 19 19 19 19 20 19 19 20 20 21 22 22 21 21 22 22 22 23 24 25 26
21 21 21 21 21 20 20 19 19 18 18 17 16 16 16 15 16 16 17 17 18 18 19 19 18 18 18 17 18 19 19 19 19 19 18 19 19 20 21 22 23 24 23
19 19 19 18 18 18 17 17 16 16 15 14 14 14 14 13 14 15 15 16 16 16 17 17 17 17 17 16 16 16 16 17 17 17 17 17 18 19 20 21 21 21 20
16 16 16 15 15 16 16 15 14 14 13 12 12 12 12 12 13 14 14 14 14 14 14 14 14 14 14 14 14 14 14 14 14 14 15 16 16 17 18 19 18 18 17
13 13 13 13 13 13 13 13 12 11 11 10 9 9 9 8 9 11 11 11 11 11 11 11 12 12 12 12 11 11 11 12 12 13 13 14 15 15 15 15 15 15 14

GEFSMA_500_meanwind_114.txt.gz
Wind_Speed
22 21 21 21 20 19 19 19 19 19 19 19 19 19 20 19 19 19 19 19 18 18 18 18 17 16 16 15 15 14 14 14 13 13 12 12 12 12 12 13 13 14 14
23 22 22 21 22 22 21 20 20 20 20 20 20 20 21 22 21 20 20 20 20 20 20 20 19 18 18 17 17 16 16 16 16 15 15 15 15 15 15 15 16 16 17
23 24 24 23 23 23 23 22 22 22 22 22 21 21 22 22 22 22 21 22 22 22 21 21 21 21 20 19 19 18 18 18 18 18 18 18 17 17 18 18 18 19 19
23 24 24 25 25 25 25 24 24 24 24 24 24 24 23 23 23 23 22 23 23 24 23 23 23 22 22 21 22 21 20 21 20 20 20 20 20 20 21 21 21 21 21
24 24 25 25 25 26 26 26 26 26 26 25 25 25 25 24 24 24 24 24 25 25 25 25 25 24 24 23 23 23 22 22 22 22 22 22 22 22 23 23 23 23 23
24 25 26 26 27 27 27 28 27 27 27 26 26 27 27 26 26 25 26 26 26 26 27 27 27 26 26 25 25 25 25 24 23 23 24 24 24 24 24 25 25 25 25
25 25 26 27 28 28 28 28 28 29 28 28 28 28 29 29 27 27 27 27 26 26 26 27 27 26 26 26 26 26 25 25 25 25 25 26 26 26 26 26 27 27 27
26 27 27 28 29 29 28 29 30 30 30 30 30 30 30 30 29 28 28 28 28 27 26 26 26 27 27 27 27 26 26 26 26 26 27 28 28 28 28 28 29 29 29
26 27 28 29 29 29 29 29 30 30 30 30 30 30 30 30 30 28 29 29 29 29 28 27 28 28 27 27 27 27 27 27 27 26 27 28 29 30 30 30 31 32 32
25 27 28 30 30 30 30 31 31 31 31 31 31 31 31 31 31 29 28 29 28 28 28 28 28 28 27 27 28 28 28 27 27 27 28 28 28 30 31 32 33 34 34
26 27 29 30 30 30 30 31 31 31 31 31 31 31 31 30 30 29 29 29 29 29 28 28 28 28 29 28 28 29 30 29 29 29 30 30 31 31 32 33 34 35 36
26 27 29 29 29 29 30 30 31 31 31 31 31 31 31 31 31 31 30 29 29 28 29 30 29 29 30 31 30 30 31 30 31 31 32 33 33 34 34 35 36 37 37
26 26 27 28 29 29 29 30 30 31 31 31 31 31 31 31 31 31 31 30 30 29 30 30 30 31 30 31 31 31 31 32 32 33 33 34 34 36 36 36 37 37 38
25 25 26 27 28 28 28 29 30 30 30 31 31 30 30 31 31 31 31 31 31 30 30 30 30 31 30 30 30 31 31 31 33 33 34 35 35 36 37 37 38 38 39
24 25 26 26 27 27 27 28 28 29 29 29 29 29 29 30 31 32 31 31 31 31 31 30 31 31 31 31 32 32 32 33 33 33 33 34 34 35 36 37 38 38 38
24 25 25 25 26 26 27 27 27 28 28 29 29 28 28 29 30 30 30 30 30 31 31 31 30 30 31 31 31 31 32 33 33 34 34 33 34 34 35 36 37 37 37
25 25 26 26 26 27 27 27 27 27 27 27 27 27 27 28 28 28 29 30 30 30 31 31 30 31 30 30 29 30 32 33 33 32 32 33 32 33 34 35 35 35 35
25 25 26 26 26 26 26 26 26 26 26 26 25 26 26 27 27 28 29 29 30 30 30 30 30 30 30 30 30 30 31 32 32 31 30 30 31 32 32 32 32 32 33
24 24 25 25 26 26 27 27 26 26 25 25 25 26 26 26 26 27 27 27 28 28 29 29 29 29 29 29 29 28 28 29 29 29 29 30 30 30 30 30 30 31 31
25 25 25 25 26 26 26 26 26 25 25 25 25 25 25 25 25 26 27 27 27 27 27 28 27 28 28 27 27 28 28 28 28 27 28 29 29 29 28 28 29 30 30
25 25 25 26 26 26 26 26 25 24 24 24 24 24 24 24 25 25 25 25 26 26 25 25 25 25 26 27 27 27 27 27 27 27 27 26 25 25 26 27 27 27 27
25 24 25 25 25 25 25 25 24 24 23 23 23 22 22 21 22 22 22 22 23 23 24 24 25 24 24 24 24 25 25 24 25 25 24 24 24 24 24 24 24 24 24
23 23 23 22 22 22 22 23 23 22 22 21 20 19 18 18 18 18 19 19 19 20 21 22 22 21 21 21 21 21 21 21 21 21 20 21 21 21 21 21 21 21 21
20 20 20 21 21 20 20 21 21 20 20 20 19 18 17 17 17 16 17 17 18 18 19 19 19 19 19 19 19 19 19 18 18 18 18 18 18 18 18 18 18 19 19
18 18 18 18 18 18 19 19 19 19 19 18 17 17 17 16 16 15 15 15 15 15 15 16 17 16 16 16 17 16 15 15 15 14 14 14 15 15 15 15 16 16 17
16 15 15 15 15 15 16 16 16 16 16 15 15 14 14 13 13 13 13 12 12 12 12 12 12 12 13 13 12 11 11 11 11 11 11 11 12 12 12 13 14 14 14

GEFSMA_500_meanwind_120.txt.gz
Wind_Speed
25 25 25 24 23 22 21 21 20 20 19 19 18 18 18 18 17 18 18 18 18 17 17 17 17 17 16 16 16 16 16 15 15 15 14 14 14 14 14 14 14 14 14
26 25 25 25 24 23 23 22 22 22 21 20 20 20 20 20 19 19 19 20 20 19 18 18 19 19 19 18 18 18 18 18 17 17 17 17 16 16 16 16 16 16 17
27 26 26 26 25 25 25 25 24 23 23 22 22 21 21 21 20 20 21 21 21 21 20 19 20 20 21 20 20 20 20 20 19 19 19 19 19 19 18 18 18 19 19
27 27 27 27 27 26 26 26 26 25 25 24 24 24 23 23 22 22 22 22 23 22 22 22 21 22 22 22 23 22 22 22 21 21 21 21 21 21 21 21 21 21 21
27 28 28 27 27 27 27 27 27 27 26 26 26 25 25 24 24 24 23 23 23 24 24 23 23 23 23 23 24 24 24 23 23 23 23 23 23 23 23 23 23 23 24
27 28 28 28 28 28 28 28 28 28 28 28 27 27 27 26 26 25 25 25 25 25 25 25 25 25 24 24 25 24 25 25 24 25 25 25 25 25 24 25 25 25 26
28 28 27 28 28 28 28 29 30 29 29 29 29 28 28 28 27 27 27 27 27 27 26 26 27 26 26 26 26 26 26 26 26 26 26 26 27 27 27 27 27 28 28
26 26 27 28 28 28 29 29 29 30 29 29 30 30 29 28 28 28 28 28 28 28 28 28 28 28 28 28 27 27 27 27 28 28 28 28 28 28 28 28 28 29 29
27 27 28 28 29 29 29 30 29 30 30 30 30 30 29 29 29 29 29 29 29 29 30 30 29 29 29 29 28 27 28 28 28 29 30 29 29 29 29 30 30 30 30
26 27 28 29 29 29 29 29 30 30 30 31 31 32 32 31 31 30 29 29 30 31 30 31 31 30 31 30 29 28 28 29 29 30 30 31 30 30 30 30 31 31 31
26 27 28 29 29 30 30 30 30 30 30 30 32 32 32 32 31 31 30 30 30 31 31 31 31 31 32 32 31 30 29 30 30 31 32 33 31 31 31 31 31 32 33
27 28 29 30 30 30 30 30 30 30 30 30 30 31 31 31 31 32 31 31 31 31 31 31 31 31 31 32 31 30 30 30 30 31 32 32 33 33 32 32 32 33 34
27 28 28 28 29 30 30 31 31 31 31 31 31 31 31 31 31 32 32 32 32 32 32 32 32 32 32 32 33 32 31 31 31 32 32 33 34 34 33 33 33 34 34
26 27 27 28 29 29 30 30 31 31 31 32 32 32 32 32 31 31 32 32 32 31 31 32 32 33 33 33 33 33 33 32 31 32 32 33 34 34 34 34 34 34 35
27 27 28 28 28 29 29 30 30 30 31 31 31 31 31 31 31 31 31 31 31 32 31 31 32 32 33 33 32 32 32 32 32 32 32 32 33 34 34 35 35 34 35
28 29 29 30 30 30 30 30 30 30 30 30 30 30 31 31 31 31 31 31 32 31 31 30 30 31 32 32 32 31 31 32 31 33 32 32 32 34 34 34 33 33 33
29 30 30 31 31 31 31 31 31 31 31 30 30 30 30 31 31 31 31 30 30 31 30 29 29 30 31 30 30 30 30 31 31 30 31 31 31 32 33 33 32 32 32
30 30 31 31 31 31 31 32 32 32 32 31 31 30 30 30 30 29 28 28 28 28 29 29 29 29 29 29 29 30 29 28 28 28 29 30 31 31 30 30 30 30 30
29 30 30 30 29 30 30 31 31 31 31 31 31 30 30 29 28 27 27 26 26 27 27 27 27 28 28 28 28 27 27 27 27 27 28 28 29 30 29 28 27 26 26
29 29 29 29 29 30 30 30 30 30 30 30 30 30 29 29 28 27 27 26 26 26 26 26 26 27 27 26 26 25 26 26 25 26 26 26 26 26 25 24 23 23 22
28 28 29 29 29 29 28 29 29 29 29 29 28 28 27 27 26 26 26 25 24 24 24 24 24 24 24 25 24 24 24 24 24 25 24 24 24 23 21 20 19 19 20
27 27 27 28 28 28 28 28 27 27 27 27 26 25 24 24 23 23 23 22 21 21 22 22 21 21 22 22 21 22 22 22 22 22 22 21 20 18 17 16 17 17 18
26 26 25 26 26 26 26 26 25 25 24 23 22 22 21 21 21 21 21 20 19 19 19 19 19 19 19 19 19 19 19 20 20 19 18 17 15 15 14 14 15 16 16
23 23 23 22 23 22 22 22 23 22 20 20 20 19 19 18 19 18 18 17 16 15 15 16 16 16 16 16 16 15 15 15 16 15 14 12 12 12 12 13 14 14 14
21 21 21 20 20 20 19 18 18 17 18 17 17 17 16 15 15 15 15 14 14 14 13 13 13 13 13 13 13 12 12 12 12 12 11 10 10 10 11 11 12 12 12
18 18 18 18 18 17 16 16 15 15 16 16 16 15 15 14 13 13 13 12 12 12 12 12 12 12 11 11 11 11 10 10 9 9 9 8 9 9 9 9 9 10 10

GEFSMA_500_meanwind_126.txt.gz
Wind_Speed
28 28 27 27 27 26 25 24 23 23 22 21 19 19 19 19 18 17 17 17 18 18 18 17 17 17 17 17 17 17 17 17 17 17 17 17 17 17 17 16 15 15 15
29 28 28 29 28 27 26 25 24 23 23 22 21 20 20 20 19 19 18 19 19 18 18 19 19 19 18 18 18 19 19 19 19 19 19 19 19 19 19 18 18 18 17
27 28 28 27 27 28 27 26 25 25 23 22 21 21 21 21 21 20 20 20 20 20 20 20 20 20 19 20 20 20 21 21 21 21 20 20 20 21 21 20 20 20 20
27 27 28 26 25 25 26 26 25 25 24 22 22 22 22 22 21 22 22 21 21 21 21 21 20 20 20 21 21 21 22 22 22 23 22 22 22 22 22 22 22 22 22
27 26 25 25 24 23 24 24 25 25 24 23 23 23 22 22 22 23 23 22 22 22 22 22 21 22 22 22 23 23 23 23 22 23 23 23 23 23 23 23 24 24 24
25 25 25 24 24 24 24 23 23 23 24 23 23 23 23 23 23 24 24 24 24 24 24 23 23 23 23 23 24 24 24 24 23 23 24 24 24 24 24 25 25 25 26
24 24 24 24 24 24 23 23 22 23 23 23 24 24 24 24 24 24 25 25 25 25 26 25 24 24 25 25 25 25 25 25 25 24 24 24 25 25 26 27 27 27 27
23 23 23 23 23 23 23 23 23 23 22 23 24 24 24 24 24 24 25 26 26 26 26 26 26 25 25 26 26 26 26 26 26 26 25 25 25 26 28 27 28 28 28
22 22 23 23 23 23 23 22 23 23 23 23 24 25 25 24 24 24 25 26 26 27 27 27 27 26 26 27 27 27 27 27 27 27 27 27 27 26 27 28 29 29 29
22 23 22 22 23 23 23 23 24 24 24 23 24 25 25 25 25 25 26 26 27 27 27 27 27 27 27 27 28 28 28 29 28 28 28 29 28 28 28 29 30 30 30
21 21 22 22 23 23 23 24 24 24 25 24 24 24 25 25 25 25 25 26 27 27 27 28 28 28 28 28 29 28 28 28 29 29 29 29 30 30 30 30 31 31 31
21 22 22 23 23 23 24 25 25 25 25 25 25 25 25 25 25 25 25 26 27 27 28 28 28 29 28 28 29 29 29 28 28 29 29 30 30 30 30 30 31 32 32
22 22 23 23 24 24 25 25 26 26 26 26 26 26 26 26 26 26 26 26 27 27 27 28 28 29 29 29 29 28 28 28 29 29 30 29 30 30 30 30 31 32 32
23 24 24 24 25 25 25 25 25 26 26 26 26 26 27 27 27 27 27 27 27 27 27 28 28 29 29 29 30 29 29 29 29 29 29 29 28 29 30 30 30 31 32
25 25 26 26 26 27 27 27 26 27 27 27 27 27 27 28 28 28 28 28 27 27 27 27 28 29 30 30 31 30 30 29 29 29 28 28 28 28 28 28 29 29 29
27 27 28 28 27 27 28 28 28 29 28 28 28 28 28 28 29 29 29 29 29 28 28 28 28 29 29 30 30 30 30 30 29 28 27 27 26 26 26 28 29 28 27
28 28 28 28 29 29 29 29 30 30 30 30 30 30 29 29 29 29 29 29 29 28 28 27 27 27 28 28 29 29 28 28 27 26 25 24 24 24 25 26 26 26 25
28 28 28 28 28 29 29 30 30 30 30 30 31 30 29 30 30 30 30 30 29 29 29 28 27 26 26 27 28 27 26 26 25 24 23 22 22 22 23 23 24 23 23
28 28 28 28 28 28 29 30 30 31 31 30 30 30 30 29 29 29 29 30 30 29 29 28 28 27 26 25 25 24 25 24 24 23 22 22 22 21 21 21 20 20 19
28 29 29 28 28 29 29 29 29 29 29 30 30 29 30 30 29 29 28 29 29 28 27 27 26 26 25 23 22 22 22 22 22 21 21 21 20 19 18 17 17 16 16
28 28 27 27 28 28 28 28 27 28 27 27 28 28 28 28 28 28 28 27 27 26 26 25 24 23 21 20 20 20 20 20 19 19 18 18 17 16 14 14 15 15 14
26 26 27 27 26 26 26 26 26 26 26 26 26 26 27 27 27 26 26 25 25 24 24 23 22 21 19 19 19 18 17 16 15 15 15 15 15 14 14 14 13 12 12
25 25 25 24 24 24 25 25 25 24 24 24 24 24 24 24 25 24 24 23 22 21 21 20 20 19 18 18 17 16 14 14 12 12 12 11 12 12 12 11 11 10 10
22 22 22 22 22 22 21 22 21 21 21 22 22 22 22 21 21 21 20 20 19 18 17 17 17 17 16 15 14 13 12 11 10 10 11 11 10 10 10 9 9 8 9
21 20 19 19 20 20 20 19 19 19 19 19 19 18 18 18 18 17 17 17 16 16 16 16 15 14 13 13 12 11 11 10 10 10 9 9 9 9 9 8 7 8 8
18 18 18 18 19 18 18 18 17 17 16 15 15 15 14 14 14 14 13 14 14 14 14 14 13 13 12 11 11 11 11 10 10 9 8 8 8 8 7 6 6 7 8

GEFSMA_500_meanwind_132.txt.gz
Wind_Speed
25 26 26 27 26 26 26 25 25 25 24 24 23 22 21 19 18 18 17 16 16 16 15 15 15 15 15 16 16 16 16 16 16 16 16 16 16 16 17 17 17 17 17
25 26 26 26 27 26 26 26 26 25 24 24 24 23 22 21 20 20 19 18 18 17 16 16 16 17 17 17 17 17 17 17 18 18 18 18 18 18 18 19 19 19 19
25 26 27 27 27 26 25 26 26 27 26 25 24 24 23 22 21 20 20 20 19 18 18 17 17 17 17 18 18 18 18 18 19 19 19 19 20 20 20 20 21 21 21
23 23 24 25 25 25 25 25 25 25 25 24 23 24 24 22 21 21 21 21 20 20 19 19 18 18 18 18 18 18 19 19 19 20 20 20 21 21 21 21 22 23 24
23 24 25 24 24 23 23 23 23 23 24 23 22 23 23 23 22 23 22 21 21 20 20 20 19 19 20 20 19 20 20 20 20 20 21 21 22 22 22 23 24 24 24
24 25 24 24 24 23 23 23 23 23 23 22 22 22 23 23 23 22 22 21 21 20 20 20 20 20 21 21 21 21 21 21 21 21 22 22 22 22 23 24 24 25 26
23 23 24 24 23 24 23 23 22 22 22 21 21 22 23 22 23 24 23 23 22 22 21 21 21 22 21 21 22 22 22 22 22 22 23 23 22 23 24 24 25 25 26
22 23 23 23 23 23 22 22 21 20 20 20 20 21 22 22 22 23 23 23 23 23 23 22 23 23 22 22 23 23 23 23 23 23 23 23 23 24 24 25 25 26 27
22 22 21 21 21 21 21 21 20 20 20 20 20 20 21 21 21 21 21 22 22 22 22 22 22 22 22 22 23 23 23 23 24 24 23 23 24 24 25 26 27 27 28
21 21 21 21 21 20 20 20 20 21 21 21 21 21 21 22 22 22 22 22 22 22 22 23 23 22 22 22 22 23 23 23 24 24 24 25 25 26 26 26 27 28 29
20 20 21 20 20 21 20 20 20 21 21 21 21 22 22 21 22 22 22 22 22 22 23 23 23 23 22 23 23 23 24 24 24 24 25 26 27 27 27 27 27 28 30
21 20 20 20 20 21 21 21 22 22 22 22 22 22 22 22 21 22 22 23 23 23 22 23 23 23 23 23 23 24 24 25 25 25 25 26 26 27 27 28 28 28 28
22 21 20 19 19 20 20 21 21 21 22 22 22 23 23 23 23 23 23 23 23 23 23 23 23 24 24 25 24 25 25 26 26 25 25 25 25 26 26 27 27 27 27
21 21 20 20 20 21 21 21 22 22 22 23 24 24 24 24 24 24 24 24 24 24 24 24 24 25 25 25 25 25 25 26 26 26 26 26 26 26 27 27 26 26 28
22 22 22 22 22 22 23 23 24 24 24 24 25 25 25 26 26 26 26 25 25 25 25 25 25 25 25 26 26 26 26 27 27 27 27 27 27 27 27 27 26 26 27
23 23 24 24 24 24 25 24 25 25 26 27 27 27 27 27 27 27 27 27 27 26 26 26 26 26 26 26 26 26 26 26 26 27 27 27 27 26 27 26 27 27 27
23 23 23 24 25 26 26 26 27 27 27 28 28 28 28 29 29 28 28 28 28 28 27 27 28 27 27 27 27 26 26 27 26 26 26 26 26 26 26 26 27 26 26
24 24 24 24 24 25 25 26 27 28 28 28 28 28 28 29 29 29 29 29 29 29 28 27 28 28 27 27 27 26 26 26 25 25 26 25 25 25 25 25 25 24 23
24 24 24 24 24 24 25 25 26 27 28 28 29 29 29 29 29 29 29 29 28 28 28 28 28 28 27 27 27 26 26 25 24 24 24 24 23 23 23 23 22 22 21
24 24 24 24 24 24 24 25 25 26 26 27 27 28 28 28 29 29 29 28 28 27 27 27 27 27 27 27 27 25 24 24 23 23 23 22 22 21 21 21 20 20 19
23 24 25 24 24 24 24 25 25 25 25 25 25 26 26 26 28 29 29 28 28 27 26 25 25 26 26 26 25 23 23 22 22 21 21 20 19 19 19 19 18 18 18
22 23 23 23 23 23 24 24 24 24 24 24 25 25 25 26 26 26 26 26 26 26 25 24 24 24 23 23 22 22 21 20 19 19 18 18 18 17 17 17 17 17 18
22 22 22 22 22 22 22 23 23 23 23 23 23 24 24 24 24 24 24 24 23 23 23 22 22 22 22 21 20 20 19 19 18 17 17 16 16 16 15 15 16 16 16
20 20 21 20 20 20 21 21 21 21 21 21 22 22 22 23 22 22 21 22 22 21 21 20 21 21 21 20 20 19 19 18 17 16 16 15 15 15 15 15 15 14 14
18 18 18 18 18 18 18 18 19 19 19 20 20 20 21 21 21 20 20 20 20 20 20 19 19 19 18 18 17 17 17 16 15 15 15 15 15 14 14 14 13 12 12
16 17 16 16 15 16 16 17 17 17 17 17 17 17 17 18 18 18 18 19 18 18 18 18 17 17 16 16 16 16 15 15 14 14 14 14 14 13 12 11 11 11 11

GEFSMA_500_meanwind_138.txt.gz
Wind_Speed
22 23 24 24 25 25 26 26 25 25 25 24 23 22 22 22 23 22 21 20 20 19 18 18 17 16 16 15 15 15 16 16 16 15 14 14 14 15 15 15 15 15 16
23 23 24 25 26 26 26 27 26 27 27 26 26 25 24 23 23 23 23 21 20 20 19 19 18 18 17 17 17 17 17 17 17 16 16 15 16 16 16 17 17 17 17
23 23 24 25 25 26 26 27 27 27 28 27 27 26 26 25 24 24 24 23 22 21 21 20 20 19 19 19 18 18 18 18 18 17 17 17 17 18 18 18 18 19 19
24 25 25 25 26 26 26 27 27 26 27 27 27 26 26 27 26 25 25 25 23 22 22 22 21 21 20 20 20 20 19 19 19 18 18 18 18 18 19 19 20 20 20
26 26 26 26 26 26 26 26 26 26 27 28 27 27 26 26 26 25 26 26 24 24 24 23 22 21 21 21 21 20 21 20 20 20 19 19 19 19 19 20 21 22 22
25 25 25 25 26 25 25 25 25 26 27 27 26 26 26 26 26 26 26 26 26 25 25 24 23 23 22 22 22 21 20 21 21 21 22 21 21 21 21 21 22 23 22
25 26 25 25 25 25 26 26 26 26 26 26 26 26 26 26 26 26 26 26 25 25 25 25 24 24 23 23 22 21 21 21 21 22 23 22 22 22 22 23 23 23 24
25 25 25 25 25 25 25 24 25 25 26 25 26 26 26 27 27 26 26 25 26 26 26 25 25 24 24 23 23 22 22 22 22 22 22 23 23 23 23 24 24 24 25
25 25 25 25 25 24 24 25 25 25 25 26 26 26 27 28 28 27 26 26 26 26 26 25 24 24 24 24 24 23 23 23 23 23 23 23 24 24 24 25 25 25 25
26 25 24 24 24 25 25 26 25 26 26 26 26 27 27 27 27 26 26 26 25 25 25 24 24 24 24 24 24 24 24 25 24 25 25 25 25 26 26 26 26 27 27
27 26 25 25 25 25 25 26 26 27 27 27 27 27 27 28 28 27 26 26 26 26 25 24 24 24 25 25 26 26 26 26 26 26 26 26 26 27 28 28 28 28 28
27 27 26 26 26 26 25 25 25 26 27 27 27 27 27 27 27 27 26 27 27 26 26 26 25 25 26 26 26 27 27 27 27 27 27 28 28 28 29 29 28 29 29
26 26 26 26 26 26 27 26 25 26 26 26 26 26 26 26 27 27 28 28 28 28 28 27 27 27 27 27 27 27 27 27 27 28 28 28 29 29 29 29 29 30 30
26 26 25 26 26 27 28 28 27 27 26 25 25 26 27 28 28 29 29 30 30 29 28 28 28 28 28 28 28 28 28 29 29 29 29 28 29 29 29 29 30 30 30
26 26 26 26 27 27 27 27 28 28 27 27 27 27 28 28 29 29 30 30 29 29 29 29 29 29 30 29 29 30 30 30 30 29 29 29 29 30 30 29 30 30 30
27 27 26 27 27 27 27 28 28 28 28 28 28 29 29 29 29 29 29 29 30 30 30 30 30 30 31 31 31 31 31 31 31 30 30 30 29 29 29 29 29 30 30
27 27 27 27 27 27 27 28 28 28 29 29 30 30 30 30 30 31 31 31 31 31 30 30 31 31 31 31 31 31 31 30 30 30 30 30 29 29 29 29 29 29 28
28 27 26 26 26 26 26 27 28 29 30 30 30 31 31 31 31 31 31 31 31 31 31 31 31 31 31 31 31 30 30 31 30 30 29 29 28 28 27 28 28 27 26
28 28 27 26 26 26 26 27 27 28 29 30 30 31 31 32 32 32 31 32 32 32 31 31 31 31 31 31 31 31 30 30 30 29 28 28 27 27 26 26 26 25 24
27 27 27 27 26 26 27 27 28 28 29 30 30 31 31 31 32 33 33 33 32 32 32 31 30 30 30 30 30 30 30 30 28 27 26 25 25 24 24 24 24 23 24
25 25 25 25 26 26 26 27 28 28 28 29 29 30 29 30 31 32 32 32 32 32 31 31 30 30 30 30 29 28 28 28 27 26 25 24 24 24 24 23 23 23 23
23 23 23 24 25 25 26 26 27 27 27 27 27 28 29 29 29 29 30 31 31 31 31 31 30 30 29 29 27 27 26 26 26 25 24 24 23 23 23 23 23 23 22
22 23 23 23 24 24 25 25 25 25 25 25 26 26 27 27 27 28 28 29 29 29 30 29 29 29 28 27 26 25 25 24 24 23 23 22 22 22 22 21 21 21 21
21 21 21 21 22 22 22 23 23 23 23 24 24 25 26 26 26 27 26 27 27 27 27 27 27 27 27 26 25 24 23 23 23 22 22 21 21 20 20 19 19 19 20
19 19 19 19 20 20 20 21 21 21 21 22 23 23 24 24 24 24 25 25 25 25 25 25 25 25 25 24 23 23 22 21 20 20 20 19 19 18 18 18 18 18 18
17 17 17 18 18 18 19 18 18 18 19 19 20 20 20 21 21 21 21 22 22 22 23 23 22 22 22 21 21 20 20 19 18 18 18 18 18 17 16 17 17 17 16

GEFSMA_500_meanwind_144.txt.gz
Wind_Speed
21 21 21 22 22 22 22 22 22 23 23 23 23 23 24 24 23 22 22 21 22 22 22 21 21 20 19 18 18 17 17 17 17 17 17 17 17 17 17 17 17 17 17
22 22 23 23 23 23 23 23 23 23 23 25 24 24 25 25 25 25 24 24 24 24 24 23 22 22 21 19 18 18 18 18 19 18 18 18 19 19 18 19 19 19 19
23 24 24 23 23 24 24 24 25 25 25 26 26 26 27 27 27 27 26 25 25 25 26 25 23 22 22 21 20 19 20 20 20 20 20 19 19 19 20 20 20 20 20
24 25 25 24 25 25 25 26 27 28 27 27 27 27 28 28 29 28 27 26 26 25 26 26 25 24 23 23 22 22 21 21 21 21 21 21 21 20 21 20 20 21 21
25 25 26 25 26 26 26 27 27 27 28 28 27 27 28 28 29 29 28 27 26 26 26 26 26 25 25 24 24 24 23 23 23 23 22 22 22 22 22 21 21 21 22
26 26 27 27 27 27 27 27 27 28 27 28 28 28 28 29 29 29 28 28 27 27 27 27 27 27 26 26 25 24 24 24 24 24 23 22 22 22 22 22 22 22 22
27 28 28 28 28 28 28 27 28 29 28 28 28 29 29 29 28 29 29 29 28 28 28 28 27 27 27 27 26 25 24 24 23 24 24 24 23 23 23 22 22 22 22
29 29 28 29 29 30 30 29 29 29 29 29 29 28 29 29 29 29 30 30 30 29 29 28 28 28 28 27 26 26 26 25 24 23 24 24 23 23 23 23 22 22 23
29 29 29 30 30 30 31 31 30 30 30 29 29 29 29 28 29 30 30 30 31 30 29 29 28 27 27 27 26 27 26 27 26 24 24 23 23 23 23 24 24 23 24
31 31 31 31 30 31 31 30 31 31 30 29 29 29 30 30 30 30 29 30 31 30 30 29 28 28 27 27 27 26 26 26 26 25 25 24 24 24 23 24 24 24 24
31 31 31 31 32 31 31 31 31 31 30 30 30 29 30 31 31 31 30 30 30 30 29 29 29 28 28 27 26 27 26 26 26 26 25 25 25 25 25 25 25 25 26
30 30 30 30 31 31 31 31 31 31 30 30 30 31 30 30 31 31 31 30 30 29 29 28 28 28 27 27 26 26 27 26 26 26 26 26 27 27 27 27 27 27 26
30 30 30 30 30 30 30 30 31 31 31 30 30 31 31 31 31 31 30 30 29 29 29 28 28 28 28 28 27 27 27 27 26 27 27 28 28 28 28 28 28 28 27
31 31 31 30 30 30 31 30 30 31 31 30 30 30 31 31 31 30 29 28 29 29 30 29 29 29 29 29 28 28 28 27 27 28 28 29 29 29 29 29 29 29 28
31 32 31 31 30 30 31 31 30 30 30 31 31 31 31 31 30 30 29 29 28 29 30 30 30 30 29 29 29 29 29 29 29 29 30 30 29 29 29 29 29 29 29
31 31 31 31 30 30 29 29 30 30 30 31 31 31 32 31 31 30 30 29 29 29 29 30 30 30 30 30 29 29 29 29 29 30 30 30 30 30 29 29 29 29 28
32 31 31 31 31 30 30 29 30 29 29 29 30 30 30 31 30 30 30 29 29 29 29 29 30 30 30 30 30 30 30 29 29 29 29 30 29 30 29 29 29 28 27
31 30 30 31 30 29 29 28 29 29 29 29 28 28 29 29 30 30 31 30 29 29 29 29 29 29 29 29 29 29 29 29 29 29 29 29 29 29 28 28 27 26 26
29 29 30 29 29 28 28 28 28 28 29 28 28 28 28 29 29 29 30 30 30 30 30 29 28 29 29 29 29 29 28 29 29 28 29 29 29 29 28 27 26 24 24
27 27 28 27 27 28 27 27 27 27 27 28 28 28 28 28 29 29 29 30 30 30 30 29 29 28 29 28 28 28 28 28 27 27 27 27 27 27 26 26 25 25 25
24 25 25 25 24 24 24 25 25 26 25 26 26 27 27 28 28 28 28 29 29 29 30 29 29 29 29 29 28 28 27 27 26 26 26 26 26 27 27 27 26 25 25
22 22 22 21 21 22 22 23 24 24 24 25 25 26 27 28 27 27 27 27 28 28 28 29 29 29 29 28 28 28 27 27 26 26 26 26 26 26 26 26 26 25 25
19 19 19 19 19 20 21 21 22 23 23 23 24 25 25 25 25 26 26 26 27 27 27 27 27 27 27 28 28 28 27 27 26 25 26 26 26 25 25 25 25 25 25
18 17 18 18 18 19 19 19 19 19 20 21 21 22 22 23 23 24 25 25 24 24 25 26 27 27 27 27 27 27 26 26 26 25 25 24 24 24 23 23 23 23 23
16 16 17 16 17 18 18 18 18 18 18 18 19 19 20 20 21 22 22 23 24 24 24 25 25 26 26 26 26 26 26 26 26 25 23 23 23 22 22 22 21 21 21
12 12 13 12 13 14 15 15 15 15 15 16 16 17 17 17 17 18 18 19 21 22 22 22 22 23 23 24 24 23 23 23 23 23 22 22 22 21 21 21 20 20 20

GEFSMA_500_meanwind_150.txt.gz
Wind_Speed
23 23 23 24 23 22 22 22 23 22 23 24 24 23 24 25 26 25 24 24 24 23 22 22 21 21 21 21 20 20 19 19 19 19 19 18 18 18 17 17 18 18 18
25 25 25 24 24 24 23 23 24 24 25 25 25 25 24 24 25 26 26 25 26 25 24 23 23 23 23 22 22 21 21 21 20 20 20 20 20 20 19 19 19 19 19
26 26 25 25 25 24 24 24 25 25 26 25 25 25 25 25 25 26 26 26 26 26 26 25 25 24 24 23 23 23 22 21 21 20 20 20 20 21 21 21 21 21 20
27 27 26 26 25 25 26 26 26 26 26 26 26 26 27 26 26 27 27 27 27 27 27 26 25 24 24 24 24 24 24 23 22 21 21 21 21 21 22 22 22 22 22
28 28 27 27 27 27 27 28 28 28 28 28 27 27 27 26 26 27 27 27 27 27 27 26 26 25 25 25 25 24 24 24 23 23 23 23 23 23 23 23 23 22 22
29 30 29 28 28 28 28 29 29 28 29 29 28 28 27 27 27 26 27 27 27 28 28 27 27 27 26 26 26 26 26 26 25 25 24 24 24 24 24 23 23 23 22
30 30 30 30 30 30 30 30 30 30 30 30 30 29 28 29 28 28 28 28 28 28 28 28 27 27 27 27 27 27 27 27 27 26 25 25 24 24 24 24 23 23 23
31 31 31 31 32 31 30 30 31 32 31 31 31 30 30 30 29 28 27 27 27 28 28 28 27 28 28 28 27 28 27 27 27 26 25 24 24 24 23 23 22 23 22
31 31 31 31 31 31 31 31 32 33 32 32 31 31 31 30 29 29 28 27 27 27 28 28 29 28 29 28 28 28 27 27 25 25 25 25 24 24 23 23 22 22 22
30 31 31 31 32 32 31 32 32 33 33 33 32 32 31 30 30 30 29 29 28 28 28 28 28 28 28 28 28 28 28 27 26 26 26 26 26 25 24 23 23 23 23
31 31 30 31 31 32 32 32 32 32 33 33 32 32 32 32 31 31 30 30 30 29 28 29 28 29 29 29 28 28 28 27 27 27 26 26 26 26 25 25 24 24 24
30 30 31 31 31 31 31 31 31 32 33 33 32 32 32 33 32 32 32 31 30 29 28 28 29 29 29 29 27 27 26 26 26 26 25 25 25 26 26 26 26 25 25
31 31 32 32 31 31 32 32 31 31 31 31 30 31 32 32 32 31 31 30 30 29 29 29 29 29 29 28 27 27 26 26 26 26 25 25 25 25 26 26 26 26 26
31 31 30 31 31 32 32 32 32 31 30 30 30 30 30 31 31 30 30 30 30 30 30 30 29 29 28 28 28 28 27 27 27 27 26 26 25 25 25 25 25 25 25
30 30 30 30 30 30 30 30 30 30 29 29 30 30 30 30 30 30 30 30 30 30 29 29 29 29 29 29 30 30 29 28 27 27 27 26 25 25 24 25 25 24 24
29 30 29 30 30 30 29 29 29 29 28 28 29 29 29 29 29 30 30 30 30 29 29 29 29 29 29 29 29 29 28 28 29 28 27 26 25 25 26 25 25 25 26
29 29 29 29 30 29 29 29 29 29 29 29 29 28 28 28 28 29 29 29 29 29 29 29 30 30 28 28 28 28 29 28 28 27 26 26 26 26 26 26 26 25 25
29 29 29 28 28 28 28 28 28 28 29 29 28 28 27 27 28 28 28 28 28 29 29 28 28 29 29 28 28 28 28 28 28 27 26 25 26 26 26 26 26 26 25
28 27 26 26 26 27 27 27 26 26 26 27 27 27 27 27 27 27 28 27 27 27 27 27 27 28 28 28 27 27 27 27 27 27 26 26 26 26 26 26 26 25 25
24 24 24 24 25 25 24 25 25 26 25 25 26 26 26 26 26 26 26 27 27 26 26 26 27 26 27 27 27 27 27 26 26 26 26 25 25 25 25 25 26 26 26
22 22 22 22 22 22 22 23 24 25 25 25 24 24 24 24 24 25 25 25 26 25 25 26 26 26 26 26 26 27 27 26 26 25 25 25 24 25 25 25 26 26 25
20 20 20 21 21 21 21 21 21 22 22 22 22 22 23 23 24 24 24 24 25 25 24 25 25 25 25 26 25 25 26 26 26 26 26 25 25 25 26 26 26 25 25
19 19 20 20 20 20 19 19 20 20 19 20 21 21 22 22 23 23 23 23 23 24 24 25 25 25 25 25 25 25 25 25 25 26 26 25 25 25 25 25 25 25 24
17 17 17 17 17 17 17 18 17 17 18 19 19 20 21 21 21 22 22 22 22 23 23 23 24 24 25 25 25 24 24 25 25 25 25 25 25 24 23 23 23 23 23
16 16 17 16 15 15 15 15 15 16 17 17 18 19 18 18 19 19 19 20 20 20 21 21 22 23 24 24 25 25 25 24 24 24 23 23 22 22 22 22 22 22 22
14 14 15 15 14 14 14 14 15 16 16 17 18 17 16 17 16 16 16 16 16 17 18 18 19 21 21 22 22 23 24 24 24 24 23 23 22 22 22 22 22 22 21

GEFSMA_500_meanwind_156.txt.gz
Wind_Speed
23 23 23 23 23 23 23 22 23 23 23 23 23 23 22 23 22 23 24 23 23 23 23 21 21 21 20 20 20 20 20 19 19 19 19 19 19 19 19 19 19 19 19
24 24 24 25 24 24 23 23 23 23 23 23 23 23 23 23 23 23 23 24 24 24 24 24 23 22 22 22 21 21 21 21 20 20 21 21 20 20 21 21 21 21 21
24 24 24 25 25 24 24 24 24 24 24 24 24 24 24 24 24 24 24 24 24 25 25 25 24 25 25 24 23 22 22 22 22 21 21 21 22 22 22 22 22 23 23
26 26 25 25 25 25 25 25 26 26 26 26 26 25 25 26 26 25 25 26 26 26 26 26 26 26 26 25 25 24 24 24 23 23 23 23 23 23 23 24 24 24 24
26 26 25 25 25 25 25 26 27 27 28 27 27 27 27 27 27 27 27 26 26 27 27 27 27 27 26 26 25 25 25 25 25 25 25 25 24 24 25 25 25 25 25
28 28 26 26 26 26 27 27 28 28 29 28 28 28 29 29 29 28 29 28 27 27 28 28 28 28 28 27 27 27 27 27 26 26 26 26 26 26 26 27 27 27 26
27 28 28 28 28 28 29 29 29 28 29 29 28 29 30 30 30 30 30 30 29 28 28 28 28 29 29 28 28 28 27 27 28 27 27 27 27 27 27 27 28 28 27
29 30 29 28 28 29 29 30 30 29 29 29 29 29 29 30 30 30 30 30 30 29 29 28 28 29 29 29 28 28 28 28 28 28 28 29 29 29 28 28 28 28 27
30 29 29 29 29 30 29 28 28 28 29 29 29 30 29 29 30 30 30 30 30 30 30 30 29 30 30 29 29 29 29 29 29 29 30 30 29 30 29 28 28 28 28
31 30 30 30 30 29 29 29 29 29 28 29 29 30 30 30 30 30 30 30 30 30 30 31 31 31 31 30 30 29 28 29 29 29 30 30 30 30 30 29 29 29 29
31 30 30 30 30 29 29 29 29 30 29 29 30 31 30 30 30 30 30 30 31 31 32 32 31 31 32 31 30 30 29 28 29 29 29 29 29 30 29 30 30 30 30
30 29 29 29 29 30 29 28 29 29 29 29 29 30 30 30 30 31 31 31 31 31 32 32 31 31 32 32 32 30 30 29 29 29 29 29 29 29 30 30 30 30 30
28 28 28 28 29 29 29 29 28 28 29 29 29 28 28 29 30 30 30 30 31 31 31 31 31 30 31 31 31 31 31 31 30 30 30 30 29 29 29 30 30 30 30
27 27 27 27 28 28 28 28 28 28 29 28 28 28 27 27 28 29 29 29 30 30 30 31 32 31 31 31 31 31 31 30 30 30 30 30 30 30 29 29 30 30 31
27 27 27 26 26 26 26 26 26 27 27 27 27 27 27 27 27 27 28 28 29 30 30 31 32 32 33 33 32 32 32 31 31 31 31 30 31 30 30 30 30 31 31
26 25 25 25 25 24 24 25 25 25 25 25 25 25 25 26 27 28 28 28 29 30 30 30 31 31 32 32 32 32 31 31 31 31 31 31 31 31 31 30 30 30 30
24 24 24 24 24 24 24 24 23 24 24 23 23 24 25 26 26 26 27 28 28 28 28 29 30 31 31 31 31 31 31 31 31 32 31 32 32 32 32 31 31 30 29
23 23 23 22 22 22 22 22 23 23 23 23 23 23 24 25 25 25 27 28 27 27 27 27 28 29 30 30 30 30 31 32 32 32 32 32 32 32 32 31 31 31 30
22 22 21 21 21 21 21 21 21 21 22 22 22 22 22 23 24 24 25 26 26 26 26 27 28 28 28 30 30 30 31 32 32 32 33 32 32 32 32 32 31 31 30
20 20 19 19 19 20 19 19 20 20 20 21 21 21 21 22 23 23 23 24 25 25 26 26 26 27 27 28 28 29 29 29 30 31 31 31 31 31 31 31 31 31 30
18 18 18 18 18 18 18 18 18 18 19 20 21 21 21 21 21 21 22 22 23 24 25 25 26 26 26 27 27 27 28 28 28 28 29 29 30 30 31 31 31 31 31
17 17 17 17 17 16 15 16 16 17 18 18 18 19 19 19 19 19 20 20 21 22 23 24 25 25 26 26 27 27 27 27 27 28 29 30 30 30 31 31 31 31 31
16 15 16 16 16 15 14 15 16 16 17 17 17 18 18 18 19 19 18 19 19 20 22 23 24 25 26 26 26 27 27 27 27 28 28 29 29 30 30 30 31 31 31
15 15 15 15 15 14 14 15 15 15 16 16 17 17 17 17 17 18 18 18 18 19 20 21 23 24 25 25 25 25 26 26 26 27 28 28 29 29 29 29 29 30 30
14 14 13 13 13 13 14 14 14 15 15 16 16 16 17 17 17 16 16 16 16 16 17 18 20 21 23 23 24 25 25 25 25 25 26 28 28 28 29 29 29 29 29
14 13 13 12 12 13 13 13 14 14 15 15 15 15 16 15 15 15 15 14 14 14 14 15 17 18 19 20 22 24 24 25 26 26 26 26 27 27 27 27 27 27 27

GEFSMA_500_meanwind_162.txt.gz
Wind_Speed
24 25 25 25 26 27 27 27 27 27 28 28 27 27 26 25 24 24 24 24 24 24 23 23 22 22 23 24 23 22 22 21 21 21 21 20 20 19 19 18 18 18 19
25 25 27 27 27 28 28 29 29 28 28 28 27 27 27 27 26 26 26 26 26 25 24 24 24 24 25 25 25 25 24 23 23 22 22 22 21 21 21 20 20 20 20
26 26 26 27 28 28 28 28 29 29 29 28 28 28 28 28 28 27 27 27 27 27 26 27 27 26 26 26 26 27 27 25 25 24 23 23 23 23 22 22 22 22 22
27 27 27 27 28 28 28 28 28 29 30 28 27 28 29 29 29 30 30 29 29 29 29 28 28 28 27 27 28 28 29 28 27 27 26 25 25 25 24 24 24 24 23
28 28 29 29 29 29 29 29 28 29 29 29 29 29 30 30 30 30 31 31 31 31 30 30 29 30 29 29 30 29 29 29 29 28 28 27 27 26 26 25 26 25 25
30 30 30 30 30 30 30 30 30 30 30 31 31 31 31 32 32 31 31 32 33 32 32 32 31 31 31 31 31 30 29 30 30 29 29 29 28 28 28 27 27 27 26
30 30 30 30 31 30 31 31 31 31 31 31 32 32 32 33 33 32 32 32 33 33 34 34 33 33 33 32 32 31 31 31 31 31 31 31 31 30 30 30 29 29 29
30 31 31 32 32 32 32 33 33 32 32 32 32 33 33 34 34 33 33 33 33 34 34 35 35 34 34 33 32 33 32 32 32 32 32 32 32 32 31 31 30 30 30
31 31 32 32 32 32 32 32 33 33 33 32 32 33 33 32 33 33 33 33 33 34 34 35 35 35 34 34 34 34 34 33 33 33 33 33 33 33 32 32 31 31 32
32 32 32 32 32 32 32 32 32 32 32 32 32 32 32 32 32 32 33 33 34 35 35 35 35 35 35 34 34 35 35 35 35 35 35 34 34 33 33 33 33 33 32
30 31 31 32 32 31 31 31 31 31 31 32 32 32 32 32 32 33 33 33 34 34 34 35 35 35 35 35 36 36 36 37 37 36 36 35 35 35 35 34 33 33 32
29 29 30 30 30 30 29 29 29 30 30 29 30 31 31 32 32 33 32 32 32 33 33 34 35 35 36 36 36 37 37 38 39 38 37 36 36 36 35 34 33 33 33
29 29 29 28 29 29 28 29 29 29 29 28 29 29 30 31 31 31 31 30 30 31 31 32 33 34 35 36 36 36 37 38 39 39 39 38 37 36 36 35 34 34 34
29 29 28 28 28 28 28 28 28 27 28 28 28 29 29 30 30 30 30 30 30 30 31 31 33 33 34 35 35 35 36 37 37 38 39 39 37 36 36 35 34 34 34
28 28 27 27 27 27 27 27 27 26 26 27 27 27 28 28 29 29 30 30 29 28 30 31 32 33 34 33 34 34 35 35 36 36 36 37 38 37 37 36 35 35 35
26 25 25 26 24 24 25 25 25 25 26 26 26 26 27 27 28 28 28 29 29 29 28 30 32 33 34 34 35 34 35 35 35 36 37 36 36 37 37 38 38 37 36
24 24 24 24 24 23 24 24 24 25 25 25 26 26 26 26 26 26 26 27 27 27 28 29 30 31 33 34 34 35 35 35 36 35 35 36 36 36 37 38 38 37 37
24 24 23 23 23 23 23 23 24 24 24 24 25 25 25 25 25 25 25 25 26 26 27 28 29 31 32 33 32 33 34 34 34 35 35 36 36 37 37 36 37 37 37
22 22 22 22 22 23 23 23 24 23 23 23 23 23 24 24 25 24 24 24 24 25 25 25 26 29 30 31 32 32 32 32 33 34 34 35 35 36 37 37 38 37 37
21 22 21 21 22 21 21 22 21 21 21 21 21 21 22 23 23 23 23 23 23 24 24 24 24 26 28 30 30 30 31 32 32 33 33 34 34 34 36 36 36 37 36
21 21 21 20 20 19 18 18 19 20 19 19 19 20 20 21 22 23 23 22 22 22 23 23 24 24 26 27 28 29 30 30 31 32 32 32 33 33 33 33 33 34 35
20 19 19 18 17 17 17 17 18 18 18 18 19 19 19 20 20 21 21 22 22 22 23 23 23 24 24 25 27 28 29 30 30 31 31 32 32 32 32 32 33 33 34
17 17 16 17 16 16 16 16 16 17 18 19 19 19 19 20 20 20 20 20 21 21 22 22 23 23 24 24 26 26 27 28 29 29 31 32 32 32 32 32 33 32 32
16 16 16 16 16 16 16 16 16 17 18 18 19 20 20 20 20 20 19 19 19 20 21 21 21 21 22 23 24 25 25 26 27 28 29 29 30 31 31 31 32 31 31
16 16 16 16 16 16 16 17 17 17 18 19 19 20 20 20 20 20 20 19 19 18 18 19 19 19 19 20 21 22 22 23 25 26 26 27 28 29 30 30 31 31 31
16 17 17 17 17 16 16 18 18 18 18 19 19 19 19 19 19 20 19 19 18 17 17 17 17 17 18 18 20 20 21 22 23 24 25 25 26 27 28 29 30 31 30

GEFSMA_500_meanwind_168.txt.gz
Wind_Speed
25 26 26 26 27 27 27 27 26 26 26 26 26 26 26 26 26 26 27 26 26 26 25 25 25 26 25 25 25 24 24 26 26 24 24 24 24 23 24 24 23 23 23
27 27 27 27 28 28 28 28 28 28 27 27 28 27 27 26 27 27 28 28 28 28 28 27 27 27 28 27 27 26 26 26 27 26 26 25 25 25 25 25 25 24 24
28 28 28 29 28 28 28 29 29 29 29 29 29 28 27 27 27 28 28 29 29 30 30 30 29 29 29 28 28 28 28 28 28 29 28 28 27 26 26 26 26 25 25
28 28 29 29 29 28 29 30 30 30 29 30 30 29 29 28 28 29 29 30 30 31 31 31 31 31 30 29 29 29 29 30 30 30 30 30 29 29 29 28 28 27 27
29 29 30 30 30 30 30 31 31 30 30 31 31 31 31 30 31 31 31 31 32 33 33 33 32 33 32 31 31 31 31 31 31 31 31 31 31 31 31 30 30 30 29
30 30 30 31 31 31 31 31 31 31 31 31 32 32 32 32 32 32 31 32 32 33 34 33 33 34 34 34 34 33 33 33 33 33 32 32 32 32 33 32 32 32 31
30 30 31 32 32 32 32 31 32 32 32 32 33 33 33 34 33 32 33 33 33 33 34 34 35 35 36 36 35 36 36 35 34 34 34 33 34 33 34 34 34 34 33
29 30 31 32 32 32 32 32 32 33 33 33 33 33 33 34 33 33 33 33 33 33 34 35 35 36 37 37 37 36 36 36 36 36 36 35 36 36 35 35 35 35 35
30 30 30 31 32 32 31 31 31 32 33 33 33 34 34 34 32 33 33 33 33 34 35 36 36 36 36 37 38 39 38 37 37 37 37 37 37 37 36 35 35 34 35
29 29 29 30 30 30 31 32 32 33 33 32 33 33 33 33 33 32 33 33 34 34 35 36 36 36 36 37 38 39 39 38 37 38 38 38 38 38 37 37 37 36 34
29 29 29 29 29 30 31 32 32 32 32 31 32 32 32 33 33 33 33 33 34 35 35 35 35 35 36 36 36 38 39 39 38 38 39 39 39 38 38 37 36 36 36
28 28 28 29 30 31 31 31 31 31 31 31 31 31 31 31 31 32 33 33 33 34 35 35 34 34 34 35 35 37 38 39 38 38 39 39 38 38 38 39 38 38 37
27 28 28 29 30 31 31 30 31 31 30 30 30 30 30 30 30 31 31 32 32 33 33 33 33 33 34 35 35 35 37 38 38 39 39 40 39 39 40 40 40 39 38
26 28 28 28 29 29 29 29 29 29 28 29 29 29 29 30 30 30 30 30 30 30 30 31 32 32 33 34 35 36 37 37 37 38 39 40 40 41 41 41 40 40 40
25 26 26 27 28 27 27 27 26 26 26 26 27 27 27 28 28 28 28 28 28 28 29 30 30 31 32 33 34 35 36 37 37 38 38 39 40 40 41 41 40 41 41
24 25 25 26 26 25 25 25 25 25 24 24 24 25 25 26 26 26 26 27 27 28 28 28 28 30 31 32 33 34 35 36 37 37 37 38 38 40 41 41 41 41 41
23 24 24 24 24 24 23 23 23 23 23 23 24 24 24 25 25 25 26 26 27 27 28 28 28 29 29 30 31 32 34 35 36 36 36 36 37 38 39 40 40 41 41
22 22 22 23 23 23 23 22 22 22 22 22 24 24 22 22 23 24 24 25 25 26 27 27 27 28 29 30 30 31 32 32 33 33 34 35 36 37 38 38 39 39 39
21 21 22 22 22 23 22 22 22 22 22 22 22 22 21 20 21 22 23 23 23 24 25 26 26 27 27 28 28 29 29 29 30 31 33 34 35 36 37 38 38 39 39
20 21 21 21 21 22 22 22 21 21 21 21 21 21 20 20 19 20 21 21 22 23 24 25 26 25 26 27 27 28 28 28 29 30 31 32 34 35 36 37 38 38 39
20 20 21 21 21 21 21 21 21 20 19 19 20 20 20 20 20 20 21 21 22 22 23 24 24 24 24 25 26 26 27 27 29 29 30 30 31 32 34 35 36 37 38
20 20 20 20 20 21 20 19 18 19 18 18 19 19 20 20 20 21 21 21 22 22 22 22 23 23 23 23 24 25 26 27 27 28 29 29 30 30 32 33 33 34 35
19 19 19 19 19 19 19 18 18 17 17 18 18 19 19 20 20 20 20 21 21 21 21 22 22 22 22 22 23 23 24 26 26 27 27 27 29 29 30 31 31 32 33
19 18 18 17 17 17 17 17 17 17 17 17 17 18 18 19 19 20 19 19 19 20 20 20 20 20 20 20 21 21 22 23 24 25 25 26 27 28 29 30 31 31 32
18 18 17 17 17 17 18 17 17 17 17 17 17 17 18 18 18 18 18 18 18 19 19 19 19 19 19 20 21 21 21 22 23 24 24 25 26 27 29 30 31 31 31
17 17 17 17 17 17 18 17 17 18 18 18 18 18 17 17 17 18 18 18 18 18 18 18 18 19 20 20 21 21 21 22 23 23 24 26 26 27 28 30 31 31 31

GEFSMA_500_meanwind_174.txt.gz
Wind_Speed
28 27 27 27 27 27 26 26 26 25 25 25 25 25 25 24 25 25 26 26 26 27 25 26 26 26 26 25 24 24 25 25 25 25 25 26 26 26 25 25 25 25 24
28 27 27 27 28 27 27 28 27 26 26 26 27 26 26 26 26 28 28 28 28 28 27 27 27 28 28 27 27 26 26 26 27 26 27 27 27 27 27 27 27 27 26
29 29 29 29 29 29 29 29 28 27 27 27 27 27 28 27 27 28 28 29 29 29 28 28 28 29 29 29 29 29 28 28 27 27 27 28 28 28 29 28 28 29 28
31 31 30 30 30 30 30 30 29 29 28 27 27 28 28 28 28 28 29 29 29 30 30 30 30 30 30 30 30 30 30 29 28 28 28 29 29 29 30 31 30 30 30
31 31 30 31 30 30 30 30 29 29 28 28 28 29 29 29 29 29 29 30 31 31 31 31 32 32 31 31 31 31 31 31 30 30 30 30 30 30 30 31 32 31 31
31 30 29 30 30 30 29 29 29 29 29 28 29 29 29 29 29 29 30 31 31 32 32 31 31 31 32 32 32 32 32 32 32 32 31 31 31 32 31 32 33 33 33
30 30 30 30 30 29 29 29 29 29 28 29 29 30 30 30 30 31 31 31 31 32 33 33 32 32 32 32 33 33 34 34 34 34 33 33 32 33 33 33 33 33 34
30 30 30 30 30 29 29 28 28 29 28 29 30 30 30 29 30 30 31 31 32 32 32 32 32 32 32 32 33 33 34 35 36 36 35 35 35 33 34 35 35 35 35
30 30 30 30 30 29 29 29 29 29 29 30 30 30 30 29 30 30 30 30 30 31 31 31 31 31 32 32 32 32 33 35 36 37 37 37 37 36 35 37 37 37 36
30 30 30 30 30 30 29 29 29 30 30 30 30 31 31 31 31 30 30 30 30 30 30 31 31 31 31 31 32 33 33 34 35 36 37 38 38 39 38 37 38 38 38
30 30 30 29 29 30 29 29 29 29 29 29 29 30 30 31 31 30 29 29 30 30 30 31 30 31 32 32 32 32 33 33 34 35 36 37 38 39 39 38 38 38 38
29 29 29 28 28 29 29 28 28 28 29 29 29 29 30 31 30 31 30 30 29 29 30 30 30 30 32 32 32 32 32 33 34 35 36 37 38 38 39 38 37 38 38
29 28 28 28 28 28 29 28 28 28 29 29 29 29 30 30 30 31 31 30 30 30 31 30 31 30 31 32 32 31 31 33 34 35 36 37 38 39 39 39 38 39 39
28 28 28 27 27 27 27 27 27 28 29 29 29 30 30 30 30 30 30 30 29 29 29 29 30 30 29 30 31 31 31 32 33 34 36 37 39 39 39 40 39 39 39
28 28 27 26 26 26 26 25 25 26 26 27 28 28 29 29 29 29 29 29 28 27 28 28 28 29 29 29 30 31 31 32 33 34 36 37 38 39 41 41 41 40 40
27 27 26 25 25 25 24 25 25 25 25 26 26 27 27 27 27 28 28 27 27 27 25 26 26 27 28 28 29 30 30 31 32 33 35 36 37 38 39 41 41 41 40
26 26 24 24 24 23 24 24 25 26 26 26 26 26 26 27 26 27 27 26 26 25 25 25 26 26 26 27 27 28 29 31 32 32 33 34 35 36 37 37 38 40 41
25 24 24 24 24 23 24 25 26 26 25 26 26 26 26 26 25 25 25 24 24 24 24 23 24 25 25 25 25 26 28 29 30 30 31 32 33 34 35 35 36 37 38
24 24 24 24 24 23 24 24 25 25 24 25 25 26 25 24 24 23 23 23 23 24 24 24 23 24 24 24 25 26 26 27 27 28 28 28 29 31 33 34 35 35 36
23 23 23 24 23 23 23 23 24 24 24 25 25 24 23 23 23 22 23 23 23 23 24 24 24 24 24 24 24 25 24 24 25 26 26 26 26 27 30 32 34 35 35
22 22 23 23 23 23 23 23 23 23 24 23 23 22 21 20 20 21 22 22 23 23 24 25 25 25 24 24 23 24 24 23 23 24 25 26 25 26 27 29 31 33 33
22 22 22 22 23 23 22 22 22 22 22 22 21 20 20 20 20 21 22 21 22 22 22 23 23 23 23 24 24 24 24 23 23 24 24 25 25 25 26 27 28 30 31
22 21 22 22 22 22 22 22 21 21 22 21 20 20 20 20 20 20 20 20 21 21 23 23 22 22 22 22 23 23 23 23 23 24 24 24 26 26 25 26 28 29 30
22 22 21 21 21 21 22 22 22 22 22 21 21 20 20 20 20 20 19 19 19 20 21 21 21 21 22 22 22 22 23 23 23 24 23 23 24 25 25 25 26 28 30
21 21 21 20 21 22 23 22 22 22 22 21 20 20 20 20 20 19 19 19 20 20 20 21 21 21 21 21 21 21 21 21 21 22 24 24 24 25 25 25 27 28 29
20 20 20 20 21 22 22 22 22 22 21 20 20 20 20 19 19 19 20 20 20 21 21 21 21 21 21 21 21 22 21 21 21 21 22 23 23 24 24 24 26 27 29

GEFSMA_500_meanwind_180.txt.gz
Wind_Speed
24 25 25 24 24 24 24 24 25 26 26 25 25 25 26 25 24 25 26 25 25 25 26 26 26 26 26 26 25 25 25 25 25 27 27 27 27 26 26 27 26 26 26
25 25 25 24 24 25 25 25 26 26 26 26 26 26 26 26 26 25 26 26 26 26 27 27 27 27 27 27 27 27 28 27 27 28 28 29 29 28 28 28 28 28 28
26 25 25 24 24 24 25 25 25 26 26 26 27 26 26 27 27 27 27 27 27 27 27 28 28 28 28 28 29 29 30 30 29 29 29 30 30 30 30 30 29 30 30
26 25 25 25 25 25 25 25 25 26 26 26 26 27 27 27 27 27 27 27 27 28 28 28 29 29 30 29 30 30 30 31 31 31 31 31 30 31 32 31 31 31 32
25 24 25 25 25 25 26 26 26 26 26 27 26 26 26 26 26 26 27 27 28 29 29 30 30 29 29 30 31 31 31 32 32 33 33 33 33 32 32 33 33 33 33
24 24 25 25 26 26 27 26 26 27 26 26 26 25 25 25 25 26 27 27 28 29 30 30 30 30 30 30 30 32 32 32 33 34 34 35 35 34 34 34 33 33 34
25 25 25 25 26 27 27 27 27 27 26 26 26 25 25 26 26 26 27 27 28 29 29 29 31 31 31 31 31 32 33 33 34 35 35 35 36 36 35 35 34 34 34
25 24 25 25 26 26 27 27 27 27 27 27 26 26 26 26 27 27 27 27 28 29 29 29 30 31 32 32 32 32 32 33 34 35 36 37 36 37 37 37 36 35 35
24 24 25 25 26 27 27 26 26 26 26 26 26 26 26 26 26 27 27 28 28 28 29 30 30 31 32 33 33 34 34 34 34 35 36 37 38 38 38 38 37 36 36
25 25 24 25 25 26 25 25 25 26 25 25 26 26 27 27 27 27 27 27 28 29 29 31 31 32 32 32 33 34 35 35 35 35 36 37 38 38 38 39 39 38 38
24 24 24 24 25 25 25 24 24 25 24 25 26 26 27 27 27 27 27 28 28 29 29 30 31 32 32 32 33 34 35 35 35 35 36 36 38 38 39 39 39 39 39
23 24 24 24 24 24 24 24 24 24 24 25 25 26 27 27 28 28 28 28 29 29 30 30 30 31 32 32 32 33 34 34 34 35 36 36 37 38 39 39 40 40 40
22 22 23 23 23 24 24 24 24 23 24 25 25 25 26 27 28 28 28 28 28 29 30 30 30 30 31 32 33 33 33 34 34 35 36 36 37 38 39 39 39 40 41
23 22 22 22 22 23 23 24 23 23 23 24 25 26 27 27 28 28 28 28 28 28 29 30 30 30 30 31 33 33 32 32 33 34 35 36 37 38 39 40 40 41 41
22 21 22 22 22 23 23 23 23 23 24 24 25 25 26 27 27 27 27 27 27 28 28 29 30 29 29 30 30 31 32 33 33 34 34 35 36 37 39 40 40 40 41
21 21 21 22 22 22 22 22 23 23 24 25 24 24 25 26 26 26 27 27 27 28 28 29 30 30 30 30 30 30 30 32 33 34 33 34 35 36 38 38 39 40 41
20 20 21 21 21 21 21 22 22 23 24 24 24 24 25 25 25 25 26 26 27 27 27 27 29 29 29 29 29 30 30 31 33 34 33 33 34 36 37 38 39 40 41
20 20 20 20 20 21 21 22 23 23 23 24 24 24 25 25 25 24 24 25 25 26 25 25 26 27 28 29 29 29 30 31 32 33 33 33 33 35 36 37 38 39 41
19 20 19 19 20 21 21 22 23 23 23 24 24 24 24 24 24 24 24 24 24 24 24 24 25 26 26 27 28 28 29 30 31 32 33 34 34 34 36 37 38 39 40
18 19 19 19 20 21 22 23 23 23 22 23 23 23 23 22 22 22 23 23 23 23 24 24 24 25 25 26 26 27 27 28 29 30 31 32 33 33 34 36 37 37 38
18 18 19 19 20 21 21 21 22 22 22 21 21 21 21 21 21 21 21 22 23 23 23 24 23 24 25 25 26 26 27 27 28 29 30 30 32 33 33 34 35 36 37
17 18 19 19 20 19 20 21 22 21 21 21 20 20 20 20 20 20 21 22 22 22 22 22 23 24 24 25 26 26 27 27 27 27 28 29 30 31 31 32 32 34 34
17 18 18 19 19 19 20 21 21 21 21 20 20 20 20 20 19 20 21 21 21 21 22 22 22 23 24 24 25 25 25 27 27 27 27 27 28 28 29 30 30 31 32
16 16 17 18 19 20 21 21 21 21 21 21 21 21 20 20 20 20 20 21 21 21 22 22 23 23 23 23 24 25 25 26 26 26 27 26 27 27 28 29 29 30 31
17 17 18 19 20 21 21 21 21 22 22 21 21 21 20 20 20 20 21 21 21 21 22 22 23 23 23 23 24 24 24 24 24 26 27 27 26 27 27 27 28 29 30
17 18 19 20 20 21 21 22 22 22 22 21 22 22 21 21 21 21 21 21 20 20 21 21 22 23 22 22 23 23 24 24 23 23 25 26 26 27 27 27 28 29 29